This is the latest recevied weather packets stored in our database for station/object WX9WTF. If no packets are shown the sender has not sent any weather packets the latest 10 day(s).
| Time | Temp. | Humidity | Pressure | Rain* | Wind** | Luminosity | Snow |
|---|---|---|---|---|---|---|---|
| 1778096402 | 15° C | 36% | 1019.2 hPa | 0 mm | - | 820 W/m² | - |
| 1778096100 | 15° C | 37% | 1019.3 hPa | 0 mm | - | 828 W/m² | - |
| 1778095797 | 14.44° C | 39% | 1019.3 hPa | 0 mm | - | 842 W/m² | - |
| 1778095494 | 14.44° C | 41% | 1019.2 hPa | 0 mm | - | 850 W/m² | - |
| 1778095190 | 14.44° C | 47% | 1019.4 hPa | 0 mm | - | 859 W/m² | - |
| 1778094887 | 14.44° C | 40% | 1019.5 hPa | 0 mm | - | 869 W/m² | - |
| 1778094583 | 13.89° C | 36% | 1019.5 hPa | 0 mm | - | 880 W/m² | - |
| 1778094280 | 13.89° C | 37% | 1019.4 hPa | 0 mm | - | 889 W/m² | - |
| 1778093977 | 15° C | 41% | 1019.4 hPa | 0 mm | - | 924 W/m² | - |
| 1778093669 | 14.44° C | 43% | 1019.7 hPa | 0 mm | - | 1010 W/m² | - |
| 1778093366 | 13.89° C | 43% | 1019.5 hPa | 0 mm | - | 522 W/m² | - |
| 1778093062 | 13.89° C | 40% | 1019.5 hPa | 0 mm | - | 557 W/m² | - |
| 1778092759 | 13.33° C | 44% | 1019.7 hPa | 0 mm | - | 394 W/m² | - |
| 1778092454 | 13.33° C | 40% | 1019.6 hPa | 0 mm | - | 401 W/m² | - |
| 1778092152 | 13.89° C | 41% | 1019.8 hPa | 0 mm | - | 415 W/m² | - |
| 1778091849 | 13.89° C | 40% | 1019.7 hPa | 0 mm | - | 400 W/m² | - |
| 1778091546 | 13.89° C | 41% | 1019.8 hPa | 0 mm | - | 480 W/m² | - |
| 1778091244 | 13.89° C | 39% | 1019.8 hPa | 0 mm | - | 519 W/m² | - |
| 1778090941 | 13.33° C | 41% | 1019.9 hPa | 0 mm | - | 390 W/m² | - |
| 1778090637 | 13.33° C | 38% | 1019.9 hPa | 0 mm | - | 333 W/m² | - |
| 1778090334 | 12.78° C | 40% | 1020 hPa | 0 mm | - | 375 W/m² | - |
| 1778090030 | 12.78° C | 40% | 1020 hPa | 0 mm | - | 389 W/m² | - |
| 1778089727 | 12.78° C | 38% | 1020.2 hPa | 0 mm | - | 374 W/m² | - |
| 1778089425 | 12.78° C | 41% | 1020.3 hPa | 0 mm | - | 348 W/m² | - |
| 1778089122 | 12.78° C | 40% | 1020.1 hPa | 0 mm | - | 316 W/m² | - |
* Rain latest hour (hover to see other rain measurements)
** Current wind speed in m/s (hover to see current wind gust speed)